Weather History for Medford, OR

Change the Weather History Date:

Tuesday, March 26, 2013

  Actual Average Record
Temperature  
Mean Temperature 54 °F 50 °F  
Max Temperature 62 °F 61 °F 80 °F (1923)
Min Temperature 45 °F 38 °F 23 °F (1914)
Degree Days  
Heating Degree Days 11 15  
Month to date heating degree days 440 443  
Since 1 July heating degree days 3515 3557  
Cooling Degree Days 0 0  
Month to date cooling degree days 0 0  
Year to date cooling degree days 0 0  
Growing Degree Days 2 (Base 50)    
Moisture  
Dew Point 42 °F    
Average Humidity 68    
Maximum Humidity 93    
Minimum Humidity 42    
Precipitation  
Precipitation 0.03 in 0.05 in 1.57 in (1940)
Month to date precipitation 0.24 1.45  
Year to date precipitation 1.69 5.89  
Snow  
Snow 0.00 in 0.00 in - ()
Month to date snowfall 0.0 0.5  
Since 1 July snowfall 1.7 4.1  
Snow Depth -    
Sea Level Pressure  
Sea Level Pressure 29.96 in    
Wind  
Wind Speed 2 mph (WSW)    
Max Wind Speed 12 mph    
Max Gust Speed 14 mph    
Visibility 9 miles    
Events Rain    
T = Trace of Precipitation, MM = Missing Value Source: NWS Daily Summary

Daily Weather History Graph

Daily Weather History Graph

Search for Another Location

Airport:

Trip Planner

Search our weather history database for the weather conditions in past years. The results will help you decide how hot, cold, wet, or windy it might be!

Date:

Astronomy

Mar. 26, 2013 Rise Set
Actual Time 7:03 AM PDT 7:30 PM PDT
Civil Twilight 6:35 AM PDT 7:59 PM PDT
Nautical Twilight 6:02 AM PDT 8:32 PM PDT
Astronomical Twilight 5:28 AM PDT 9:06 PM PDT
Moon 7:14 PM PDT (3/26) 6:23 AM PDT (3/26)
Length of Visible Light 13h 23m
Length of Day
12h 27m
Full, 100% of the Moon is Illuminated
Mar 26
Full
Mar 27
Full
Apr 2
Last Quarter
Apr 10
New
Apr 18
First Quarter

Hourly Weather History & Observations

Time (PDT) Temp. Windchill Dew Point Humidity Pressure Visibility Wind Dir Wind Speed Gust Speed Precip Events Conditions
12:48 AM 46.4 °F - 44.6 °F 93% 29.97 in 10.0 mi Calm Calm - 0.01 in Rain Light Rain
12:53 AM 46.9 °F - 43.0 °F 86% 29.97 in 10.0 mi Calm Calm - 0.02 in Rain Light Rain
1:53 AM 46.9 °F - 43.0 °F 86% 29.97 in 10.0 mi Calm Calm - 0.00 in   Overcast
2:04 AM 46.4 °F - 44.6 °F 93% 29.97 in 10.0 mi Calm Calm - N/A   Overcast
2:28 AM 46.4 °F - 44.6 °F 93% 29.97 in 10.0 mi Calm Calm - N/A   Overcast
2:53 AM 46.9 °F - 44.1 °F 90% 29.97 in 10.0 mi West 3.5 mph - N/A   Overcast
3:07 AM 46.4 °F 45.2 °F 44.6 °F 93% 29.97 in 6.0 mi NW 3.5 mph - 0.00 in Rain Light Rain
3:19 AM 46.4 °F - 44.6 °F 93% 29.97 in 4.0 mi Calm Calm - 0.00 in Rain Light Rain
3:26 AM 46.4 °F - 44.6 °F 93% 29.97 in 4.0 mi Calm Calm - 0.00 in Rain Light Rain
3:53 AM 46.0 °F - 44.1 °F 93% 29.97 in 4.0 mi Calm Calm - 0.01 in Rain Light Rain
4:21 AM 46.4 °F - 42.8 °F 87% 29.97 in 5.0 mi Calm Calm - 0.01 in Rain Light Rain
4:49 AM 44.6 °F 41.4 °F 42.8 °F 93% 29.97 in 10.0 mi ESE 5.8 mph - 0.02 in   Overcast
4:53 AM 45.0 °F 42.6 °F 42.1 °F 90% 29.97 in 10.0 mi ESE 4.6 mph - 0.02 in   Overcast
5:53 AM 46.0 °F - 41.0 °F 83% 29.98 in 10.0 mi Calm Calm - N/A   Overcast
6:53 AM 45.0 °F - 42.1 °F 90% 29.99 in 10.0 mi Calm Calm - N/A   Overcast
7:53 AM 46.0 °F - 43.0 °F 89% 29.99 in 10.0 mi Calm Calm - N/A   Overcast
8:31 AM 46.4 °F - 42.8 °F 87% 29.99 in 10.0 mi Calm Calm - N/A   Overcast
8:53 AM 46.9 °F - 41.0 °F 80% 29.99 in 10.0 mi Calm Calm - N/A   Overcast
9:53 AM 48.0 °F - 42.1 °F 80% 30.00 in 10.0 mi Calm Calm - N/A   Overcast
10:53 AM 50.0 °F - 39.0 °F 66% 30.00 in 10.0 mi WNW 3.5 mph - N/A   Overcast
11:53 AM 53.1 °F - 39.0 °F 59% 29.99 in 10.0 mi Calm Calm - N/A   Mostly Cloudy
12:53 PM 55.9 °F - 39.0 °F 53% 29.98 in 10.0 mi Calm Calm - N/A   Mostly Cloudy
1:53 PM 57.0 °F - 39.9 °F 53% 29.96 in 10.0 mi Calm Calm - N/A   Mostly Cloudy
2:53 PM 59.0 °F - 39.0 °F 48% 29.95 in 10.0 mi Calm Calm - N/A   Overcast
3:53 PM 59.0 °F - 41.0 °F 51% 29.93 in 10.0 mi Calm Calm - N/A   Overcast
4:53 PM 61.0 °F - 39.0 °F 44% 29.92 in 10.0 mi West 8.1 mph - N/A   Overcast
5:53 PM 60.1 °F - 37.9 °F 44% 29.92 in 10.0 mi WNW 9.2 mph - N/A   Overcast
6:53 PM 59.0 °F - 39.0 °F 48% 29.92 in 10.0 mi WNW 6.9 mph - 0.00 in   Overcast
7:53 PM 57.0 °F - 39.0 °F 51% 29.93 in 10.0 mi Calm Calm - N/A   Overcast
8:53 PM 54.0 °F - 41.0 °F 62% 29.94 in 10.0 mi SW 4.6 mph - N/A   Mostly Cloudy
9:53 PM 53.1 °F - 42.1 °F 66% 29.94 in 10.0 mi SSW 4.6 mph - N/A   Overcast
10:53 PM 52.0 °F - 44.1 °F 74% 29.95 in 10.0 mi South 3.5 mph - N/A   Overcast
11:53 PM 52.0 °F - 42.1 °F 69% 29.94 in 10.0 mi West 3.5 mph - N/A   Overcast